MZN3042 KDEN-KAFW

Flight info

Callsign MZN3042
Flight time 1h 28m
Altitude 37000
Route SLEEK2 SLEEK EZEEE MDANO WESAT3
Aircraft B738/M-SDE2E3FGHIRWXY/LB1

Departure

Time 2026-05-08 02:08
Airport Denver International Airport (KDEN)

Arrival

Time 2026-05-08 03:36
Airport Perot Field/Fort Worth Alliance Airport (KAFW)
Time Latitude Longitude Altitude Speed Heading
2026-05-08 01:41 39.82932 -104.68024 5387 ft 0 kts 180°
2026-05-08 01:55 39.82939 -104.68024 5387 ft 4 kts 179°
2026-05-08 01:56 39.82966 -104.68027 5386 ft 4 kts 169°
2026-05-08 01:56 39.82992 -104.68036 5383 ft 4 kts 154°
2026-05-08 01:56 39.83012 -104.68056 5384 ft 4 kts 112°
2026-05-08 01:56 39.83015 -104.68071 5384 ft 1 kts 91°
2026-05-08 01:57 39.83015 -104.68073 5384 ft 1 kts 91°
2026-05-08 01:59 39.83015 -104.68072 5384 ft 1 kts 91°
2026-05-08 01:59 39.83014 -104.68016 5385 ft 12 kts 89°
2026-05-08 01:59 39.83014 -104.67850 5387 ft 24 kts 91°
2026-05-08 01:59 39.83011 -104.67607 5387 ft 28 kts 90°
2026-05-08 02:00 39.83010 -104.67359 5391 ft 27 kts 91°
2026-05-08 02:00 39.82945 -104.67147 5387 ft 25 kts 102°
2026-05-08 02:00 39.82937 -104.66931 5399 ft 23 kts 91°
2026-05-08 02:00 39.82935 -104.66725 5409 ft 22 kts 91°
2026-05-08 02:01 39.82932 -104.66525 5407 ft 22 kts 90°
2026-05-08 02:01 39.82934 -104.66331 5435 ft 21 kts 81°
2026-05-08 02:01 39.83059 -104.66266 5433 ft 23 kts
2026-05-08 02:01 39.83226 -104.66262 5421 ft 25 kts
2026-05-08 02:02 39.83408 -104.66261 5423 ft 27 kts
2026-05-08 02:02 39.83603 -104.66259 5420 ft 28 kts
2026-05-08 02:02 39.83795 -104.66258 5416 ft 27 kts
2026-05-08 02:02 39.83975 -104.66254 5416 ft 25 kts
2026-05-08 02:03 39.84146 -104.66252 5414 ft 25 kts
2026-05-08 02:03 39.84334 -104.66250 5405 ft 29 kts 360°
2026-05-08 02:03 39.84543 -104.66248 5409 ft 31 kts 359°
2026-05-08 02:03 39.84755 -104.66245 5400 ft 31 kts
2026-05-08 02:04 39.84972 -104.66242 5400 ft 31 kts
2026-05-08 02:04 39.85193 -104.66240 5392 ft 32 kts
2026-05-08 02:04 39.85414 -104.66239 5391 ft 31 kts
2026-05-08 02:04 39.85619 -104.66236 5392 ft 29 kts
2026-05-08 02:05 39.85812 -104.66232 5387 ft 27 kts
2026-05-08 02:05 39.85992 -104.66231 5385 ft 25 kts 360°
2026-05-08 02:05 39.86165 -104.66230 5381 ft 26 kts
2026-05-08 02:05 39.86354 -104.66226 5381 ft 28 kts
2026-05-08 02:06 39.86554 -104.66225 5377 ft 30 kts
2026-05-08 02:06 39.86768 -104.66221 5374 ft 33 kts
2026-05-08 02:06 39.87003 -104.66219 5366 ft 34 kts
2026-05-08 02:06 39.87235 -104.66216 5361 ft 33 kts
2026-05-08 02:07 39.87455 -104.66213 5359 ft 31 kts
2026-05-08 02:07 39.87659 -104.66210 5360 ft 25 kts
2026-05-08 02:07 39.87752 -104.66181 5360 ft 14 kts 73°
2026-05-08 02:07 39.87754 -104.65981 5356 ft 49 kts 90°
2026-05-08 02:08 39.87749 -104.65214 5348 ft 118 kts 90°
2026-05-08 02:08 39.87740 -104.63873 5351 ft 174 kts 90°
2026-05-08 02:08 39.87716 -104.62244 5944 ft 184 kts 89°
2026-05-08 02:08 39.87533 -104.60565 6633 ft 197 kts 108°
2026-05-08 02:09 39.87005 -104.58864 7168 ft 210 kts 110°
2026-05-08 02:09 39.86424 -104.56993 7344 ft 235 kts 110°
2026-05-08 02:09 39.85782 -104.54914 7538 ft 260 kts 110°
2026-05-08 02:09 39.85081 -104.52634 7868 ft 280 kts 109°
2026-05-08 02:10 39.84352 -104.50257 8684 ft 284 kts 108°
2026-05-08 02:10 39.83621 -104.47868 9499 ft 286 kts 108°
2026-05-08 02:10 39.82890 -104.45475 9845 ft 285 kts 108°
2026-05-08 02:10 39.82145 -104.43030 9920 ft 295 kts 109°
2026-05-08 02:11 39.81233 -104.40645 9919 ft 298 kts 126°
2026-05-08 02:11 39.79626 -104.38949 10000 ft 304 kts 150°
2026-05-08 02:11 39.77564 -104.37961 10166 ft 328 kts 162°
2026-05-08 02:11 39.75287 -104.37128 10500 ft 348 kts 163°
2026-05-08 02:12 39.72936 -104.36293 11231 ft 352 kts 167°
2026-05-08 02:12 39.70500 -104.36197 12075 ft 352 kts 189°
2026-05-08 02:12 39.68173 -104.37135 12939 ft 352 kts 201°
2026-05-08 02:12 39.65905 -104.38341 13538 ft 359 kts 201°
2026-05-08 02:13 39.63592 -104.39613 14265 ft 361 kts 201°
2026-05-08 02:13 39.61275 -104.40876 15078 ft 360 kts 201°
2026-05-08 02:13 39.58962 -104.42111 15942 ft 358 kts 201°
2026-05-08 02:13 39.56663 -104.43319 16804 ft 355 kts 201°
2026-05-08 02:14 39.54369 -104.44511 17525 ft 357 kts 201°
2026-05-08 02:14 39.51922 -104.45173 18067 ft 367 kts 184°
2026-05-08 02:14 39.49360 -104.44817 18692 ft 373 kts 173°
2026-05-08 02:14 39.46810 -104.44153 19378 ft 375 kts 172°
2026-05-08 02:15 39.44275 -104.43485 19993 ft 377 kts 173°
2026-05-08 02:15 39.41690 -104.42835 20591 ft 379 kts 174°
2026-05-08 02:15 39.39088 -104.42208 21192 ft 381 kts 175°
2026-05-08 02:15 39.36476 -104.41590 21781 ft 383 kts 175°
2026-05-08 02:16 39.33848 -104.40954 22336 ft 385 kts 175°
2026-05-08 02:16 39.31215 -104.40298 22838 ft 387 kts 175°
2026-05-08 02:16 39.28561 -104.39642 23307 ft 389 kts 176°
2026-05-08 02:16 39.25886 -104.39008 23817 ft 391 kts 176°
2026-05-08 02:17 39.23206 -104.38374 24311 ft 392 kts 176°
2026-05-08 02:17 39.20513 -104.37733 24807 ft 394 kts 176°
2026-05-08 02:17 39.17810 -104.37086 25251 ft 395 kts 177°
2026-05-08 02:17 39.15086 -104.36442 25679 ft 398 kts 177°
2026-05-08 02:18 39.12358 -104.35735 26113 ft 402 kts 175°
2026-05-08 02:18 39.10553 -104.35185 26381 ft 404 kts 174°
2026-05-08 02:18 39.06922 -104.33992 26947 ft 407 kts 173°
2026-05-08 02:18 39.04178 -104.33073 27382 ft 408 kts 173°
2026-05-08 02:19 39.01422 -104.32159 27765 ft 409 kts 174°
2026-05-08 02:19 38.99591 -104.31559 28014 ft 411 kts 174°
2026-05-08 02:19 38.96813 -104.30658 28372 ft 412 kts 174°
2026-05-08 02:19 38.94027 -104.29763 28721 ft 414 kts 174°
2026-05-08 02:20 38.90276 -104.28564 29173 ft 416 kts 175°
2026-05-08 02:20 38.88410 -104.27970 29398 ft 416 kts 175°
2026-05-08 02:20 38.85594 -104.27078 29650 ft 418 kts 175°
2026-05-08 02:20 38.82757 -104.26183 29899 ft 421 kts 175°
2026-05-08 02:21 38.79905 -104.25280 30197 ft 423 kts 175°
2026-05-08 02:21 38.77051 -104.24367 30510 ft 424 kts 175°
2026-05-08 02:21 38.74194 -104.23454 30801 ft 424 kts 175°
2026-05-08 02:21 38.71317 -104.22539 31028 ft 427 kts 175°
2026-05-08 02:22 38.68430 -104.21619 31319 ft 428 kts 175°
2026-05-08 02:22 38.65542 -104.20705 31662 ft 427 kts 175°
2026-05-08 02:22 38.62662 -104.19795 32065 ft 424 kts 175°
2026-05-08 02:22 38.59801 -104.18890 32485 ft 422 kts 175°
2026-05-08 02:23 38.56961 -104.17993 32823 ft 421 kts 175°
2026-05-08 02:23 38.54118 -104.17098 33112 ft 421 kts 175°
2026-05-08 02:23 38.51289 -104.16080 33392 ft 429 kts 167°
2026-05-08 02:23 38.48634 -104.14174 33727 ft 449 kts 152°
2026-05-08 02:24 38.46212 -104.11624 34119 ft 451 kts 150°
2026-05-08 02:24 38.43833 -104.09000 34384 ft 452 kts 149°
2026-05-08 02:24 38.41457 -104.06363 34593 ft 454 kts 149°
2026-05-08 02:24 38.39066 -104.03725 34846 ft 453 kts 150°
2026-05-08 02:25 38.36676 -104.01114 35140 ft 452 kts 150°
2026-05-08 02:25 38.34288 -103.98526 35391 ft 450 kts 150°
2026-05-08 02:25 38.31927 -103.95983 35659 ft 449 kts 150°
2026-05-08 02:25 38.29509 -103.93388 35926 ft 448 kts 150°
2026-05-08 02:26 38.27156 -103.90867 36134 ft 448 kts 151°
2026-05-08 02:26 38.24766 -103.88311 36324 ft 450 kts 151°
2026-05-08 02:26 38.22374 -103.85753 36552 ft 449 kts 151°
2026-05-08 02:26 38.19989 -103.83202 36840 ft 447 kts 151°
2026-05-08 02:27 38.15207 -103.78097 36901 ft 450 kts 151°
2026-05-08 02:27 38.10429 -103.72995 36895 ft 446 kts 151°
2026-05-08 02:28 38.05695 -103.67955 36893 ft 442 kts 151°
2026-05-08 02:28 38.00995 -103.62967 36893 ft 439 kts 151°
2026-05-08 02:29 37.96321 -103.58017 36899 ft 437 kts 152°
2026-05-08 02:29 37.91653 -103.53082 36908 ft 437 kts 152°
2026-05-08 02:30 37.86931 -103.48106 36910 ft 446 kts 152°
2026-05-08 02:30 37.82123 -103.43047 36902 ft 453 kts 151°
2026-05-08 02:31 37.77257 -103.37924 36901 ft 455 kts 151°
2026-05-08 02:31 37.72392 -103.32802 36898 ft 455 kts 152°
2026-05-08 02:32 37.67552 -103.27719 36905 ft 454 kts 152°
2026-05-08 02:32 37.62690 -103.22623 36908 ft 453 kts 152°
2026-05-08 02:33 37.57841 -103.17556 36907 ft 452 kts 152°
2026-05-08 02:33 37.52998 -103.12504 36909 ft 452 kts 152°
2026-05-08 02:34 37.48155 -103.07464 36914 ft 451 kts 152°
2026-05-08 02:34 37.43311 -103.02427 36921 ft 451 kts 152°
2026-05-08 02:35 37.38465 -102.97395 36918 ft 451 kts 152°
2026-05-08 02:35 37.33662 -102.92421 36928 ft 451 kts 152°
2026-05-08 02:36 37.28818 -102.87410 36932 ft 451 kts 152°
2026-05-08 02:36 37.23968 -102.82402 36939 ft 451 kts 152°
2026-05-08 02:37 37.19114 -102.77399 36934 ft 452 kts 152°
2026-05-08 02:37 37.14243 -102.72388 36936 ft 453 kts 152°
2026-05-08 02:38 37.09370 -102.67382 36935 ft 453 kts 152°
2026-05-08 02:38 37.04487 -102.62375 36932 ft 454 kts 152°
2026-05-08 02:39 36.99600 -102.57373 36943 ft 454 kts 153°
2026-05-08 02:39 36.94730 -102.52396 36938 ft 455 kts 153°
2026-05-08 02:40 36.89822 -102.47388 36937 ft 455 kts 153°
2026-05-08 02:40 36.84916 -102.42390 36933 ft 455 kts 153°
2026-05-08 02:41 36.80009 -102.37399 36935 ft 455 kts 153°
2026-05-08 02:41 36.75094 -102.32410 36925 ft 455 kts 153°
2026-05-08 02:42 36.70184 -102.27436 36930 ft 455 kts 153°
2026-05-08 02:42 36.65262 -102.22458 36927 ft 455 kts 153°
2026-05-08 02:43 36.60354 -102.17505 36921 ft 454 kts 153°
2026-05-08 02:43 36.55441 -102.12549 36929 ft 454 kts 153°
2026-05-08 02:44 36.50550 -102.07625 36927 ft 455 kts 153°
2026-05-08 02:44 36.45632 -102.02683 36929 ft 455 kts 153°
2026-05-08 02:45 36.40712 -101.97748 36923 ft 455 kts 153°
2026-05-08 02:45 36.35786 -101.92822 36922 ft 455 kts 153°
2026-05-08 02:46 36.30856 -101.87890 36931 ft 455 kts 153°
2026-05-08 02:46 36.25921 -101.82963 36932 ft 456 kts 153°
2026-05-08 02:47 36.20979 -101.78037 36934 ft 456 kts 153°
2026-05-08 02:47 36.16067 -101.73151 36929 ft 456 kts 153°
2026-05-08 02:48 36.11115 -101.68234 36928 ft 456 kts 153°
2026-05-08 02:48 36.06160 -101.63321 36931 ft 456 kts 153°
2026-05-08 02:49 36.01206 -101.58417 36935 ft 456 kts 153°
2026-05-08 02:49 35.96252 -101.53520 36935 ft 456 kts 153°
2026-05-08 02:50 35.91290 -101.48627 36936 ft 456 kts 153°
2026-05-08 02:50 35.86326 -101.43735 36936 ft 456 kts 153°
2026-05-08 02:51 35.81365 -101.38854 36939 ft 457 kts 152°
2026-05-08 02:51 35.76644 -101.33422 36942 ft 468 kts 145°
2026-05-08 02:52 35.72146 -101.27667 36939 ft 470 kts 144°
2026-05-08 02:52 35.67612 -101.21876 36936 ft 469 kts 145°
2026-05-08 02:53 35.63040 -101.16130 36935 ft 469 kts 145°
2026-05-08 02:53 35.58452 -101.10414 36948 ft 469 kts 145°
2026-05-08 02:54 35.53861 -101.04716 36939 ft 469 kts 145°
2026-05-08 02:54 35.49263 -100.99015 36946 ft 470 kts 145°
2026-05-08 02:55 35.42394 -100.90512 36948 ft 470 kts 145°
2026-05-08 02:56 35.37785 -100.84817 36956 ft 470 kts 145°
2026-05-08 02:56 35.33179 -100.79135 36954 ft 470 kts 145°
2026-05-08 02:57 35.28568 -100.73461 36959 ft 470 kts 145°
2026-05-08 02:57 35.23948 -100.67787 36952 ft 470 kts 145°
2026-05-08 02:58 35.19330 -100.62121 36957 ft 470 kts 145°
2026-05-08 02:58 35.14703 -100.56454 36953 ft 470 kts 145°
2026-05-08 02:59 35.10106 -100.50835 36958 ft 470 kts 145°
2026-05-08 02:59 35.05480 -100.45186 36963 ft 470 kts 145°
2026-05-08 03:00 35.00854 -100.39548 36964 ft 470 kts 145°
2026-05-08 03:00 34.96225 -100.33921 36961 ft 470 kts 145°
2026-05-08 03:01 34.91598 -100.28300 36959 ft 469 kts 145°
2026-05-08 03:01 34.86968 -100.22686 36970 ft 469 kts 145°
2026-05-08 03:02 34.82363 -100.17110 36975 ft 470 kts 145°
2026-05-08 03:02 34.77720 -100.11503 36970 ft 470 kts 145°
2026-05-08 03:03 34.73072 -100.05897 36972 ft 470 kts 145°
2026-05-08 03:03 34.68418 -100.00294 36973 ft 471 kts 145°
2026-05-08 03:04 34.63757 -99.94693 36975 ft 471 kts 144°
2026-05-08 03:04 34.59096 -99.89096 36982 ft 471 kts 144°
2026-05-08 03:05 34.54467 -99.83546 36980 ft 471 kts 144°
2026-05-08 03:05 34.49803 -99.77968 36981 ft 471 kts 144°
2026-05-08 03:06 34.45898 -99.73303 36984 ft 471 kts 144°
2026-05-08 03:06 34.41236 -99.67742 36979 ft 470 kts 144°
2026-05-08 03:07 34.36595 -99.62214 36992 ft 470 kts 144°
2026-05-08 03:07 34.31988 -99.56572 36979 ft 478 kts 137°
2026-05-08 03:07 34.29975 -99.53316 36599 ft 489 kts 133°
2026-05-08 03:08 34.28080 -99.49895 36207 ft 486 kts 131°
2026-05-08 03:08 34.26261 -99.46473 35749 ft 482 kts 131°
2026-05-08 03:08 34.24456 -99.43080 35299 ft 477 kts 131°
2026-05-08 03:08 34.22646 -99.39738 34851 ft 473 kts 131°
2026-05-08 03:09 34.20826 -99.36442 34411 ft 468 kts 132°
2026-05-08 03:09 34.19032 -99.33237 33982 ft 464 kts 132°
2026-05-08 03:09 34.17219 -99.30027 33547 ft 460 kts 133°
2026-05-08 03:09 34.15422 -99.26857 33122 ft 455 kts 133°
2026-05-08 03:10 34.13642 -99.23722 32701 ft 451 kts 132°
2026-05-08 03:10 34.11869 -99.20602 32274 ft 448 kts 132°
2026-05-08 03:10 34.10116 -99.17517 31854 ft 444 kts 132°
2026-05-08 03:10 34.08377 -99.14459 31445 ft 441 kts 132°
2026-05-08 03:11 34.06651 -99.11421 31030 ft 437 kts 132°
2026-05-08 03:11 34.04835 -99.08540 30593 ft 423 kts 143°
2026-05-08 03:11 34.02554 -99.06485 30248 ft 399 kts 161°
2026-05-08 03:11 34.00066 -99.05123 29910 ft 388 kts 166°
2026-05-08 03:12 33.97552 -99.04102 29610 ft 376 kts 172°
2026-05-08 03:12 33.95055 -99.03287 29358 ft 368 kts 173°
2026-05-08 03:12 33.92600 -99.02529 29124 ft 361 kts 173°
2026-05-08 03:12 33.90191 -99.01796 28930 ft 354 kts 174°
2026-05-08 03:13 33.87822 -99.01074 28749 ft 347 kts 174°
2026-05-08 03:13 33.85479 -99.00362 28612 ft 349 kts 174°
2026-05-08 03:13 33.83081 -98.99646 28490 ft 362 kts 174°
2026-05-08 03:13 33.80586 -98.98922 28403 ft 376 kts 174°
2026-05-08 03:14 33.77997 -98.98186 28189 ft 384 kts 174°
2026-05-08 03:14 33.75448 -98.97461 27816 ft 380 kts 174°
2026-05-08 03:14 33.72880 -98.96730 27359 ft 378 kts 174°
2026-05-08 03:14 33.70325 -98.96005 26906 ft 377 kts 174°
2026-05-08 03:15 33.67777 -98.95287 26432 ft 375 kts 174°
2026-05-08 03:15 33.65243 -98.94576 25968 ft 373 kts 174°
2026-05-08 03:15 33.62714 -98.93868 25518 ft 372 kts 174°
2026-05-08 03:15 33.60198 -98.93166 25073 ft 370 kts 174°
2026-05-08 03:16 33.57695 -98.92471 24626 ft 369 kts 174°
2026-05-08 03:16 33.55202 -98.91781 24206 ft 367 kts 174°
2026-05-08 03:16 33.52722 -98.91097 23772 ft 365 kts 174°
2026-05-08 03:16 33.50256 -98.90370 23331 ft 367 kts 167°
2026-05-08 03:17 33.48023 -98.88758 22797 ft 387 kts 141°
2026-05-08 03:17 33.46424 -98.86116 22411 ft 396 kts 122°
2026-05-08 03:17 33.45429 -98.83070 22011 ft 401 kts 107°
2026-05-08 03:17 33.44848 -98.79799 21598 ft 401 kts 105°
2026-05-08 03:18 33.44322 -98.76523 21180 ft 400 kts 104°
2026-05-08 03:18 33.43810 -98.73261 20817 ft 397 kts 104°
2026-05-08 03:18 33.43296 -98.70025 20418 ft 395 kts 104°
2026-05-08 03:18 33.42776 -98.66817 20022 ft 390 kts 104°
2026-05-08 03:19 33.42255 -98.63653 19500 ft 385 kts 104°
2026-05-08 03:19 33.41728 -98.60513 18907 ft 384 kts 104°
2026-05-08 03:19 33.41200 -98.57393 18351 ft 381 kts 104°
2026-05-08 03:19 33.40673 -98.54294 17844 ft 378 kts 104°
2026-05-08 03:20 33.40151 -98.51230 17310 ft 372 kts 104°
2026-05-08 03:20 33.39637 -98.48206 16706 ft 369 kts 104°
2026-05-08 03:20 33.39125 -98.45204 16083 ft 367 kts 104°
2026-05-08 03:20 33.38621 -98.42258 15507 ft 364 kts 104°
2026-05-08 03:21 33.38109 -98.39270 14941 ft 360 kts 104°
2026-05-08 03:21 33.37613 -98.36388 14366 ft 356 kts 104°
2026-05-08 03:21 33.37118 -98.33504 13909 ft 350 kts 104°
2026-05-08 03:21 33.36633 -98.30681 13493 ft 342 kts 104°
2026-05-08 03:22 33.36154 -98.27908 13153 ft 340 kts 103°
2026-05-08 03:22 33.35677 -98.25139 12804 ft 339 kts 103°
2026-05-08 03:22 33.35200 -98.22379 12462 ft 338 kts 103°
2026-05-08 03:22 33.34722 -98.19626 12111 ft 336 kts 103°
2026-05-08 03:23 33.34249 -98.16896 11771 ft 335 kts 103°
2026-05-08 03:23 33.33778 -98.14174 11426 ft 334 kts 104°
2026-05-08 03:23 33.33307 -98.11464 11092 ft 332 kts 104°
2026-05-08 03:23 33.32837 -98.08760 10743 ft 331 kts 104°
2026-05-08 03:24 33.32370 -98.06078 10530 ft 326 kts 104°
2026-05-08 03:24 33.31914 -98.03454 10392 ft 318 kts 105°
2026-05-08 03:24 33.31475 -98.00935 10268 ft 309 kts 105°
2026-05-08 03:24 33.31041 -97.98448 10138 ft 302 kts 105°
2026-05-08 03:25 33.30615 -97.96023 10025 ft 294 kts 105°
2026-05-08 03:25 33.30200 -97.93656 9905 ft 287 kts 105°
2026-05-08 03:25 33.29794 -97.91349 9788 ft 280 kts 105°
2026-05-08 03:25 33.29399 -97.89100 9654 ft 273 kts 105°
2026-05-08 03:26 33.29011 -97.86897 9547 ft 272 kts 106°
2026-05-08 03:26 33.28614 -97.84658 9323 ft 280 kts 106°
2026-05-08 03:26 33.28197 -97.82310 9076 ft 296 kts 106°
2026-05-08 03:26 33.27768 -97.79880 8774 ft 300 kts 106°
2026-05-08 03:27 33.27339 -97.77441 8463 ft 300 kts 106°
2026-05-08 03:27 33.26908 -97.75005 8161 ft 299 kts 108°
2026-05-08 03:27 33.26362 -97.72624 7877 ft 296 kts 109°
2026-05-08 03:27 33.25886 -97.70246 7631 ft 293 kts 108°
2026-05-08 03:28 33.25427 -97.67889 7380 ft 290 kts 108°
2026-05-08 03:28 33.24964 -97.65560 7128 ft 286 kts 108°
2026-05-08 03:28 33.24503 -97.63261 6885 ft 283 kts 109°
2026-05-08 03:28 33.24041 -97.60984 6643 ft 280 kts 109°
2026-05-08 03:29 33.23581 -97.58737 6399 ft 277 kts 109°
2026-05-08 03:29 33.23125 -97.56539 6170 ft 275 kts 109°
2026-05-08 03:29 33.22668 -97.54337 5925 ft 272 kts 109°
2026-05-08 03:29 33.22213 -97.52161 5696 ft 269 kts 109°
2026-05-08 03:30 33.21319 -97.47864 5245 ft 263 kts 110°
2026-05-08 03:30 33.20441 -97.43678 4799 ft 256 kts 110°
2026-05-08 03:31 33.19585 -97.39589 4354 ft 251 kts 110°
2026-05-08 03:31 33.18210 -97.36059 4041 ft 217 kts 153°
2026-05-08 03:32 33.16853 -97.35546 3924 ft 198 kts 172°
2026-05-08 03:32 33.15543 -97.35256 3673 ft 183 kts 170°
2026-05-08 03:32 33.14340 -97.34992 3442 ft 168 kts 171°
2026-05-08 03:32 33.13248 -97.34764 3238 ft 150 kts 171°
2026-05-08 03:33 33.12267 -97.34563 3063 ft 134 kts 171°
2026-05-08 03:33 33.11380 -97.34380 2887 ft 129 kts 170°
2026-05-08 03:33 33.10450 -97.34190 2698 ft 141 kts 169°
2026-05-08 03:33 33.09471 -97.33988 2504 ft 144 kts 170°
2026-05-08 03:34 33.08475 -97.33783 2320 ft 146 kts 170°
2026-05-08 03:34 33.07450 -97.33573 2128 ft 150 kts 171°
2026-05-08 03:34 33.06418 -97.33361 1911 ft 149 kts 169°
2026-05-08 03:34 33.05418 -97.33156 1707 ft 141 kts 170°
2026-05-08 03:35 33.04471 -97.32948 1514 ft 136 kts 171°
2026-05-08 03:35 33.03534 -97.32772 1349 ft 135 kts 170°
2026-05-08 03:35 33.02586 -97.32586 1119 ft 141 kts 169°
2026-05-08 03:35 33.01633 -97.32374 936 ft 139 kts 171°
2026-05-08 03:36 33.00686 -97.32173 767 ft 140 kts 171°
2026-05-08 03:36 32.99766 -97.31989 722 ft 122 kts 170°
2026-05-08 03:36 32.99140 -97.31863 710 ft 60 kts 170°
2026-05-08 03:36 32.98868 -97.31809 703 ft 36 kts 171°
2026-05-08 03:37 32.98624 -97.31763 699 ft 29 kts 172°
2026-05-08 03:37 32.98525 -97.31852 696 ft 0 kts 259°